• In Hungary
  • List of Countries
  • For 7 days
  • Water Temperature
  • Satellite Maps
  • Weather Map
  • News
  • Weather Widgets
  • user-avatar
    Login

    Hourly Weather Myszki

    Today, 25 June, Monday

    Time Temperature Precipitation Wind Pressure Humidity
    00:00 +9°C° 0.2 mm 2 mps 747 mmHg 95%
    01:00 +9°C° 0 mm 2 mps 747 mmHg 97%
    02:00 +9°C° 0.6 mm 2 mps 747 mmHg 97%
    03:00 +10°C° 0.6 mm 3 mps 747 mmHg 97%
    04:00 +10°C° 0.6 mm 3 mps 747 mmHg 97%
    05:00 +10°C° 0.8 mm 4 mps 748 mmHg 96%
    06:00 +11°C° 0.8 mm 4 mps 748 mmHg 95%
    07:00 +10°C° 0.8 mm 5 mps 748 mmHg 94%
    08:00 +12°C° 0.7 mm 5 mps 748 mmHg 92%
    09:00 +12°C° 0.7 mm 5 mps 748 mmHg 91%
    10:00 +13°C° 0.7 mm 5 mps 748 mmHg 90%
    11:00 +13°C° 0.5 mm 5 mps 749 mmHg 88%
    12:00 +13°C° 0.5 mm 5 mps 749 mmHg 86%
    13:00 +14°C° 0.5 mm 5 mps 749 mmHg 85%
    14:00 +14°C° 0.3 mm 4 mps 749 mmHg 83%
    15:00 +14°C° 0.3 mm 4 mps 749 mmHg 82%
    16:00 +15°C° 0.3 mm 4 mps 749 mmHg 81%
    17:00 +14°C° 0.2 mm 3 mps 749 mmHg 83%
    18:00 +15°C° 0.2 mm 2 mps 749 mmHg 86%
    19:00 +14°C° 0.2 mm 2 mps 749 mmHg 89%
    20:00 +13°C° 0 mm 2 mps 749 mmHg 90%
    21:00 +13°C° 0 mm 1 mps 749 mmHg 92%
    22:00 +12°C° 0 mm 1 mps 750 mmHg 94%
    23:00 +12°C° 0.5 mm 1 mps 750 mmHg 94%

    Tomorrow, 26 June, Tuesday

    Time Temperature Precipitation Wind Pressure Humidity
    00:00 +12°C° 0.5 mm 2 mps 750 mmHg 95%
    01:00 +12°C° 0.5 mm 2 mps 750 mmHg 95%
    02:00 +12°C° 0.2 mm 2 mps 750 mmHg 96%
    03:00 +12°C° 0.2 mm 2 mps 750 mmHg 96%
    04:00 +12°C° 0.2 mm 2 mps 750 mmHg 96%
    05:00 +12°C° 0.1 mm 2 mps 750 mmHg 94%
    06:00 +13°C° 0.1 mm 2 mps 750 mmHg 93%
    07:00 +14°C° 0.1 mm 2 mps 751 mmHg 92%
    08:00 +15°C° 0.2 mm 2 mps 751 mmHg 85%
    09:00 +16°C° 0.2 mm 2 mps 751 mmHg 79%
    10:00 +18°C° 0.2 mm 3 mps 751 mmHg 72%
    11:00 +18°C° 0.6 mm 3 mps 751 mmHg 71%
    12:00 +19°C° 0.6 mm 3 mps 751 mmHg 70%
    13:00 +20°C° 0.6 mm 4 mps 751 mmHg 69%
    14:00 +20°C° 0.7 mm 3 mps 751 mmHg 70%
    15:00 +20°C° 0.7 mm 3 mps 751 mmHg 71%
    16:00 +19°C° 0.7 mm 3 mps 751 mmHg 73%
    17:00 +19°C° 0.3 mm 3 mps 751 mmHg 77%
    18:00 +18°C° 0.3 mm 2 mps 752 mmHg 82%
    19:00 +17°C° 0.3 mm 2 mps 752 mmHg 86%
    20:00 +16°C° 0 mm 2 mps 752 mmHg 89%
    21:00 +15°C° 0 mm 2 mps 753 mmHg 92%
    22:00 +13°C° 0 mm 3 mps 753 mmHg 94%
    23:00 +13°C° 0 mm 3 mps 753 mmHg 95%

    Day after tomorrow, 27 June, Wednesday

    Time Temperature Precipitation Wind Pressure Humidity
    00:00 +12°C° 0 mm 3 mps 753 mmHg 95%
    01:00 +12°C° 0 mm 3 mps 753 mmHg 95%
    02:00 +12°C° 0 mm 3 mps 754 mmHg 96%
    03:00 +13°C° 0 mm 3 mps 754 mmHg 96%
    04:00 +13°C° 0 mm 3 mps 754 mmHg 96%
    05:00 +14°C° 0 mm 3 mps 754 mmHg 92%
    06:00 +16°C° 0 mm 3 mps 755 mmHg 89%
    07:00 +18°C° 0 mm 3 mps 755 mmHg 85%
    08:00 +19°C° 0.2 mm 4 mps 755 mmHg 79%
    09:00 +21°C° 0.2 mm 4 mps 755 mmHg 72%
    10:00 +23°C° 0.2 mm 5 mps 755 mmHg 66%
    11:00 +25°C° 0.2 mm 5 mps 755 mmHg 63%
    12:00 +25°C° 0.2 mm 5 mps 755 mmHg 60%
    13:00 +26°C° 0.2 mm 5 mps 755 mmHg 57%
    14:00 +26°C° 0.1 mm 5 mps 754 mmHg 58%
    15:00 +26°C° 0.1 mm 5 mps 754 mmHg 59%
    16:00 +26°C° 0.1 mm 5 mps 754 mmHg 60%
    17:00 +25°C° 0 mm 5 mps 754 mmHg 65%
    18:00 +22°C° 0 mm 4 mps 754 mmHg 69%
    19:00 +21°C° 0 mm 4 mps 754 mmHg 74%
    20:00 +21°C° 0 mm 4 mps 754 mmHg 75%
    21:00 +20°C° 0 mm 4 mps 754 mmHg 75%
    22:00 +19°C° 0 mm 5 mps 754 mmHg 76%
    23:00 +19°C° 0 mm 5 mps 754 mmHg 77%

    28 June, Thursday

    Time Temperature Precipitation Wind Pressure Humidity
    00:00 +19°C° 0 mm 5 mps 754 mmHg 78%
    01:00 +17°C° 0 mm 5 mps 753 mmHg 78%
    02:00 +17°C° 0 mm 5 mps 753 mmHg 79%
    03:00 +17°C° 0 mm 5 mps 753 mmHg 80%
    04:00 +17°C° 0 mm 6 mps 753 mmHg 81%
    05:00 +19°C° 0 mm 6 mps 753 mmHg 76%
    06:00 +20°C° 0 mm 7 mps 753 mmHg 72%
    07:00 +22°C° 0 mm 7 mps 752 mmHg 67%
    08:00 +23°C° 0 mm 7 mps 752 mmHg 63%
    09:00 +24°C° 0 mm 8 mps 752 mmHg 60%
    10:00 +27°C° 0 mm 8 mps 752 mmHg 56%
    11:00 +27°C° 0 mm 8 mps 752 mmHg 56%
    12:00 +28°C° 0 mm 7 mps 752 mmHg 56%
    13:00 +28°C° 0 mm 7 mps 751 mmHg 56%
    14:00 +28°C° 0.3 mm 7 mps 751 mmHg 59%
    15:00 +28°C° 0.3 mm 6 mps 751 mmHg 61%
    16:00 +28°C° 0.3 mm 6 mps 750 mmHg 64%
    17:00 +27°C° 0.3 mm 5 mps 750 mmHg 69%
    18:00 +25°C° 0.3 mm 5 mps 750 mmHg 73%
    19:00 +23°C° 0.3 mm 4 mps 750 mmHg 78%
    20:00 +22°C° 0.3 mm 4 mps 750 mmHg 81%
    21:00 +21°C° 0.3 mm 3 mps 750 mmHg 83%
    22:00 +20°C° 0.3 mm 3 mps 750 mmHg 86%
    23:00 +19°C° 0.4 mm 3 mps 749 mmHg 88%

    29 June, Friday

    Time Temperature Precipitation Wind Pressure Humidity
    00:00 +19°C° 0.4 mm 3 mps 749 mmHg 90%
    01:00 +19°C° 0.4 mm 2 mps 749 mmHg 92%
    02:00 +18°C° 0.1 mm 2 mps 749 mmHg 93%
    03:00 +18°C° 0.1 mm 2 mps 748 mmHg 94%
    04:00 +18°C° 0.1 mm 2 mps 748 mmHg 95%
    05:00 +20°C° 0 mm 2 mps 748 mmHg 91%
    06:00 +21°C° 0 mm 2 mps 748 mmHg 87%
    07:00 +23°C° 0 mm 2 mps 748 mmHg 83%
    08:00 +25°C° 0.5 mm 2 mps 747 mmHg 77%
    09:00 +26°C° 0.5 mm 2 mps 747 mmHg 72%
    10:00 +28°C° 0.5 mm 2 mps 747 mmHg 67%
    11:00 +28°C° 0.8 mm 2 mps 746 mmHg 66%
    12:00 +28°C° 0.8 mm 3 mps 746 mmHg 65%
    13:00 +29°C° 0.8 mm 3 mps 746 mmHg 65%
    14:00 +28°C° 1 mm 4 mps 745 mmHg 68%
    15:00 +27°C° 1 mm 4 mps 745 mmHg 70%
    16:00 +27°C° 1 mm 5 mps 745 mmHg 73%
    17:00 +25°C° 0.2 mm 5 mps 745 mmHg 75%
    18:00 +23°C° 0.2 mm 5 mps 745 mmHg 77%
    19:00 +21°C° 0.2 mm 5 mps 745 mmHg 78%
    20:00 +20°C° 0 mm 5 mps 745 mmHg 80%
    21:00 +17°C° 0 mm 6 mps 746 mmHg 82%
    22:00 +16°C° 0 mm 6 mps 746 mmHg 83%
    23:00 +15°C° 0 mm 6 mps 747 mmHg 80%

    30 June, Saturday

    Time Temperature Precipitation Wind Pressure Humidity
    00:00 +14°C° 0 mm 6 mps 747 mmHg 77%
    01:00 +11°C° 0 mm 6 mps 747 mmHg 74%
    02:00 +12°C° 0 mm 5 mps 748 mmHg 73%
    03:00 +10°C° 0 mm 5 mps 748 mmHg 73%
    04:00 +9°C° 0 mm 5 mps 749 mmHg 72%
    05:00 +10°C° 0 mm 6 mps 749 mmHg 67%
    06:00 +13°C° 0 mm 6 mps 749 mmHg 63%
    07:00 +14°C° 0 mm 7 mps 749 mmHg 58%
    08:00 +15°C° 0 mm 7 mps 749 mmHg 56%
    09:00 +17°C° 0 mm 7 mps 749 mmHg 54%
    10:00 +18°C° 0 mm 7 mps 749 mmHg 52%
    11:00 +18°C° 0 mm 8 mps 749 mmHg 51%
    12:00 +20°C° 0 mm 8 mps 749 mmHg 50%
    13:00 +20°C° 0 mm 8 mps 749 mmHg 50%
    14:00 +18°C° 0 mm 8 mps 749 mmHg 52%
    15:00 +18°C° 0 mm 8 mps 749 mmHg 54%
    16:00 +17°C° 0 mm 8 mps 749 mmHg 56%
    17:00 +16°C° 0 mm 7 mps 749 mmHg 60%
    18:00 +15°C° 0 mm 7 mps 750 mmHg 64%
    19:00 +13°C° 0 mm 6 mps 750 mmHg 68%
    20:00 +11°C° 0 mm 6 mps 750 mmHg 71%
    21:00 +10°C° 0 mm 5 mps 750 mmHg 74%
    22:00 +9°C° 0 mm 5 mps 751 mmHg 77%
    23:00 +8°C° 0 mm 4 mps 751 mmHg 80%
    Show more